Location: *
(49.9853°N, 3.5569°E)
Time: 00:38:19
(UTC+00:00)

Cosmos 1603 - Pass Details

Date: 22 September 2019
Orbit: 831 x 860 km, 71.0° (Epoch: 15 October)

Event Time Altitude Azimuth Distance (km) Brightness Sun altitude
Rises 20:53:46 0° 329° (NNW) 3,411 7.9 -28.8°
Reaches altitude 10° 20:56:13 10° 326° (NNW) 2,476 7.0 -29.1°
Enters shadow 21:01:38 65° 259° (W) 933 3.9 -29.7°
